Hourly Weather Abakonovo

Today, 21 October, Wednesday

Time Temperature Precipitation Wind Pressure Humidity
00:00 -1°C° 0 mm 2 mps 748 mmHg 87%
01:00 -1°C° 0 mm 2 mps 748 mmHg 86%
02:00 +1°C° 0 mm 2 mps 748 mmHg 83%
03:00 +1°C° 0 mm 2 mps 747 mmHg 85%
04:00 +1°C° 0 mm 2 mps 747 mmHg 86%
05:00 +1°C° 0 mm 2 mps 747 mmHg 88%
06:00 +2°C° 0.1 mm 2 mps 747 mmHg 89%
07:00 +2°C° 0.1 mm 2 mps 746 mmHg 90%
08:00 +1°C° 0.1 mm 3 mps 746 mmHg 92%
09:00 +1°C° 0.2 mm 3 mps 746 mmHg 92%
10:00 +2°C° 0.2 mm 3 mps 745 mmHg 93%
11:00 +2°C° 0.2 mm 3 mps 745 mmHg 93%
12:00 +2°C° 0.4 mm 3 mps 745 mmHg 94%
13:00 +2°C° 0.4 mm 3 mps 745 mmHg 95%
14:00 +2°C° 0.4 mm 3 mps 744 mmHg 96%
15:00 +3°C° 0 mm 2 mps 744 mmHg 96%
16:00 +3°C° 0 mm 2 mps 743 mmHg 96%
17:00 +4°C° 0 mm 2 mps 743 mmHg 96%
18:00 +4°C° 0 mm 2 mps 743 mmHg 96%
19:00 +4°C° 0 mm 2 mps 743 mmHg 96%
20:00 +4°C° 0 mm 2 mps 743 mmHg 97%
21:00 +4°C° 0 mm 2 mps 743 mmHg 97%
22:00 +5°C° 0 mm 1 mps 743 mmHg 98%
23:00 +5°C° 0 mm 1 mps 743 mmHg 98%

Tomorrow, 22 October, Thursday

Time Temperature Precipitation Wind Pressure Humidity
00:00 +4°C° 0 mm 2 mps 743 mmHg 98%
01:00 +4°C° 0 mm 2 mps 743 mmHg 98%
02:00 +4°C° 0 mm 2 mps 743 mmHg 97%
03:00 +5°C° 0 mm 2 mps 743 mmHg 97%
04:00 +5°C° 0 mm 2 mps 742 mmHg 97%
05:00 +5°C° 0 mm 2 mps 742 mmHg 96%
06:00 +4°C° 0 mm 3 mps 741 mmHg 95%
07:00 +4°C° 0 mm 3 mps 741 mmHg 94%
08:00 +4°C° 0 mm 4 mps 741 mmHg 93%
09:00 +4°C° 1.1 mm 4 mps 740 mmHg 93%
10:00 +5°C° 1.1 mm 4 mps 740 mmHg 94%
11:00 +5°C° 1.1 mm 4 mps 739 mmHg 94%
12:00 +5°C° 0.9 mm 4 mps 739 mmHg 94%
13:00 +6°C° 0.9 mm 4 mps 738 mmHg 94%
14:00 +6°C° 0.9 mm 4 mps 737 mmHg 94%
15:00 +7°C° 0.1 mm 4 mps 737 mmHg 93%
16:00 +7°C° 0.1 mm 4 mps 736 mmHg 92%
17:00 +8°C° 0.1 mm 4 mps 736 mmHg 91%
18:00 +9°C° 0.1 mm 5 mps 735 mmHg 90%
19:00 +9°C° 0.1 mm 5 mps 735 mmHg 89%
20:00 +10°C° 0.1 mm 6 mps 735 mmHg 88%
21:00 +10°C° 0 mm 6 mps 735 mmHg 86%
22:00 +11°C° 0 mm 6 mps 735 mmHg 84%
23:00 +11°C° 0 mm 6 mps 735 mmHg 83%

Day after tomorrow, 23 October, Friday

Time Temperature Precipitation Wind Pressure Humidity
00:00 +11°C° 0 mm 6 mps 735 mmHg 83%
01:00 +11°C° 0 mm 6 mps 736 mmHg 83%
02:00 +11°C° 0 mm 6 mps 736 mmHg 83%
03:00 +10°C° 0 mm 6 mps 736 mmHg 85%
04:00 +10°C° 0 mm 5 mps 737 mmHg 87%
05:00 +9°C° 0 mm 5 mps 737 mmHg 88%
06:00 +9°C° 0 mm 5 mps 737 mmHg 88%
07:00 +10°C° 0 mm 4 mps 737 mmHg 87%
08:00 +10°C° 0 mm 4 mps 737 mmHg 87%
09:00 +10°C° 0 mm 4 mps 737 mmHg 86%
10:00 +11°C° 0 mm 4 mps 737 mmHg 85%
11:00 +11°C° 0 mm 4 mps 737 mmHg 84%
12:00 +11°C° 0.7 mm 4 mps 736 mmHg 87%
13:00 +11°C° 0.7 mm 4 mps 736 mmHg 90%
14:00 +11°C° 0.7 mm 3 mps 735 mmHg 93%
15:00 +11°C° 0.6 mm 4 mps 735 mmHg 92%
16:00 +11°C° 0.6 mm 4 mps 735 mmHg 92%
17:00 +11°C° 0.6 mm 4 mps 734 mmHg 91%
18:00 +11°C° 0.4 mm 4 mps 734 mmHg 91%
19:00 +11°C° 0.4 mm 4 mps 734 mmHg 91%
20:00 +11°C° 0.4 mm 4 mps 734 mmHg 90%
21:00 +11°C° 0.2 mm 4 mps 734 mmHg 90%
22:00 +10°C° 0.2 mm 4 mps 734 mmHg 89%
23:00 +10°C° 0.2 mm 4 mps 734 mmHg 88%

24 October, Saturday

Time Temperature Precipitation Wind Pressure Humidity
00:00 +8°C° 0 mm 4 mps 735 mmHg 88%
01:00 +8°C° 0 mm 4 mps 735 mmHg 88%
02:00 +8°C° 0 mm 4 mps 735 mmHg 89%
03:00 +7°C° 0 mm 4 mps 736 mmHg 87%
04:00 +7°C° 0 mm 4 mps 736 mmHg 86%
05:00 +7°C° 0 mm 4 mps 736 mmHg 85%
06:00 +7°C° 0 mm 4 mps 736 mmHg 84%
07:00 +8°C° 0 mm 3 mps 736 mmHg 84%
08:00 +8°C° 0 mm 3 mps 736 mmHg 83%
09:00 +8°C° 0 mm 3 mps 737 mmHg 81%
10:00 +9°C° 0 mm 3 mps 737 mmHg 78%
11:00 +9°C° 0 mm 3 mps 737 mmHg 76%
12:00 +9°C° 0 mm 3 mps 737 mmHg 76%
13:00 +9°C° 0 mm 3 mps 737 mmHg 76%
14:00 +10°C° 0 mm 3 mps 737 mmHg 77%
15:00 +9°C° 0 mm 2 mps 737 mmHg 81%
16:00 +8°C° 0 mm 2 mps 737 mmHg 85%
17:00 +8°C° 0 mm 2 mps 736 mmHg 89%
18:00 +7°C° 0 mm 2 mps 736 mmHg 91%
19:00 +7°C° 0 mm 2 mps 736 mmHg 93%
20:00 +7°C° 0 mm 2 mps 736 mmHg 95%
21:00 +7°C° 1 mm 2 mps 735 mmHg 96%
22:00 +7°C° 1 mm 2 mps 735 mmHg 97%
23:00 +8°C° 1 mm 2 mps 735 mmHg 97%

25 October, Sunday

Time Temperature Precipitation Wind Pressure Humidity
00:00 +8°C° 2.1 mm 2 mps 735 mmHg 97%
01:00 +8°C° 2.1 mm 2 mps 735 mmHg 97%
02:00 +8°C° 2.1 mm 2 mps 735 mmHg 96%
03:00 +8°C° 0.7 mm 3 mps 735 mmHg 94%
04:00 +8°C° 0.7 mm 3 mps 735 mmHg 91%
05:00 +7°C° 0.7 mm 4 mps 736 mmHg 88%
06:00 +7°C° 0 mm 4 mps 737 mmHg 88%
07:00 +7°C° 0 mm 4 mps 737 mmHg 87%
08:00 +7°C° 0 mm 4 mps 738 mmHg 86%
09:00 +7°C° 0 mm 4 mps 739 mmHg 85%
10:00 +7°C° 0 mm 4 mps 739 mmHg 83%
11:00 +7°C° 0 mm 4 mps 740 mmHg 81%
12:00 +7°C° 0 mm 4 mps 741 mmHg 80%
13:00 +7°C° 0 mm 4 mps 741 mmHg 79%
14:00 +7°C° 0 mm 4 mps 742 mmHg 78%
15:00 +8°C° 0 mm 3 mps 742 mmHg 79%
16:00 +8°C° 0 mm 3 mps 743 mmHg 80%
17:00 +8°C° 0 mm 2 mps 743 mmHg 81%
18:00 +8°C° 0 mm 2 mps 744 mmHg 83%
19:00 +8°C° 0 mm 2 mps 744 mmHg 84%
20:00 +8°C° 0 mm 1 mps 745 mmHg 86%
21:00 +8°C° 0 mm 1 mps 745 mmHg 88%
22:00 +7°C° 0 mm 1 mps 745 mmHg 90%
23:00 +6°C° 0 mm 1 mps 746 mmHg 93%

26 October, Monday

Time Temperature Precipitation Wind Pressure Humidity
00:00 +6°C° 0 mm 1 mps 746 mmHg 94%
01:00 +6°C° 0 mm 1 mps 746 mmHg 95%
02:00 +5°C° 0 mm 1 mps 746 mmHg 96%
03:00 +5°C° 0 mm 1 mps 747 mmHg 96%
04:00 +4°C° 0 mm 2 mps 747 mmHg 96%
05:00 +4°C° 0 mm 2 mps 747 mmHg 96%
06:00 +4°C° 0 mm 2 mps 747 mmHg 95%
07:00 +4°C° 0 mm 2 mps 747 mmHg 94%
08:00 +4°C° 0 mm 2 mps 747 mmHg 93%
09:00 +5°C° 0 mm 2 mps 747 mmHg 88%
10:00 +7°C° 0 mm 3 mps 747 mmHg 83%
11:00 +8°C° 0 mm 3 mps 747 mmHg 78%
12:00 +8°C° 0 mm 3 mps 747 mmHg 76%
13:00 +9°C° 0 mm 3 mps 747 mmHg 74%
14:00 +9°C° 0 mm 3 mps 747 mmHg 72%
15:00 +8°C° 0 mm 3 mps 747 mmHg 78%
16:00 +7°C° 0 mm 3 mps 747 mmHg 83%
17:00 +6°C° 0 mm 2 mps 747 mmHg 88%
18:00 +6°C° 0 mm 2 mps 747 mmHg 90%
19:00 +5°C° 0 mm 3 mps 747 mmHg 91%
20:00 +4°C° 0 mm 3 mps 747 mmHg 92%
21:00 +4°C° 0 mm 3 mps 747 mmHg 93%
22:00 +4°C° 0 mm 3 mps 747 mmHg 93%
23:00 +4°C° 0 mm 3 mps 747 mmHg 94%

27 October, Tuesday

Time Temperature Precipitation Wind Pressure Humidity
00:00 +4°C° 0 mm 3 mps 748 mmHg 94%
01:00 +3°C° 0 mm 3 mps 748 mmHg 94%
02:00 +3°C° 0 mm 3 mps 748 mmHg 94%
03:00 +3°C° 0 mm 3 mps 748 mmHg 94%
04:00 +3°C° 0 mm 3 mps 748 mmHg 94%
05:00 +3°C° 0 mm 3 mps 748 mmHg 95%
06:00 +3°C° 0 mm 3 mps 748 mmHg 94%
07:00 +3°C° 0 mm 3 mps 748 mmHg 93%
08:00 +3°C° 0 mm 3 mps 748 mmHg 92%
09:00 +4°C° 0 mm 4 mps 748 mmHg 87%
10:00 +5°C° 0 mm 4 mps 748 mmHg 81%
11:00 +7°C° 0 mm 4 mps 748 mmHg 75%
12:00 +7°C° 0 mm 4 mps 748 mmHg 74%
13:00 +8°C° 0 mm 4 mps 748 mmHg 73%
14:00 +8°C° 0 mm 4 mps 748 mmHg 73%
15:00 +7°C° 0 mm 4 mps 748 mmHg 77%
16:00 +8°C° 0 mm 3 mps 748 mmHg 81%
17:00 +7°C° 0 mm 3 mps 748 mmHg 86%
18:00 +7°C° 0 mm 3 mps 748 mmHg 86%
19:00 +7°C° 0 mm 3 mps 748 mmHg 87%
20:00 +7°C° 0 mm 3 mps 748 mmHg 88%
21:00 +7°C° 0 mm 3 mps 748 mmHg 86%
22:00 +7°C° 0 mm 3 mps 749 mmHg 85%
23:00 +7°C° 0 mm 3 mps 749 mmHg 84%
Show more